#timestamp,LO_Frequency,Hit,StdDev 
1571169615.2,286046993.4,Y
1571169635.1,286047000.4,P
1571169636.0,286047000.4,N
1571169655.8,286047000.4,N
1571169675.6,286046998.6,N
1571169695.5,286047000.4,N
1571169715.3,286047000.1,N
1571169735.2,286046999.9,N
1571169755.9,286047000.6,N
1571169775.7,286046998.3,N
1571169795.6,286047000.6,N
1571169815.4,286047000.8,N
1571169835.2,286047000.6,N
1571169855.1,286047000.7,N
1571169856.0,286047000.7,N
1571169875.8,286046998.2,N
1571169895.7,286046998.1,N
1571169915.5,286047001.0,N
1571169935.3,286047001.1,N
1571169955.2,286046998.7,N
1571169975.9,286046998.8,N
1571169995.7,286046997.3,N
1571170015.6,286046998.9,N
1571170035.4,286047001.0,N
1571170055.3,286046999.0,N
1571170075.1,286046999.3,N
1571170076.0,286046999.3,N
1571170095.8,286046996.8,N
1571170115.7,286046996.7,N
1571170135.5,286046995.6,Y
1571170155.3,286046995.0,P
1571170175.2,286046997.0,N
1571170195.0,286046999.6,N
1571170195.9,286046999.6,N
1571170215.8,286046999.6,N
1571170235.6,286046996.6,N
1571170255.4,286046997.9,N
1571170275.3,286046997.3,N
1571170295.1,286046999.2,N
1571170315.8,286046996.7,N
1571170335.7,286046995.6,N
1571170355.5,286046995.5,N
1571170375.4,286046996.1,N
1571170395.2,286046995.7,N
1571170415.0,286046993.5,Y
1571170415.9,286046993.5,P
1571170435.8,286046996.5,N
1571170455.6,286046999.4,N
1571170475.5,286046997.3,N
1571170495.3,286046999.5,N
1571170515.1,286046999.1,N
1571170535.9,286046996.7,N
1571170555.7,286046997.7,N
1571170575.5,286046998.7,N
1571170595.4,286046998.7,N
1571170615.2,286046995.5,N
1571170635.1,286046997.3,N
1571170636.0,286046997.3,N
1571170655.8,286046999.1,N
1571170675.6,286046997.4,N
1571170695.5,286046997.3,N
1571170715.3,286046997.3,N
1571170735.1,286046997.4,N
1571170755.9,286046997.4,N
1571170775.7,286046997.1,N
1571170795.6,286046996.7,N
1571170815.4,286046998.4,N
1571170835.2,286046996.9,N
1571170855.1,286046997.5,N
1571170856.0,286046997.5,N
1571170875.8,286046995.7,Y
1571170895.7,286046999.9,P
1571170915.5,286047002.8,N
1571170935.3,286047002.3,N
1571170955.2,286047002.8,N
1571170975.9,286047002.2,N
1571170995.7,286047000.5,N
1571171015.6,286047000.8,N
1571171035.4,286046999.9,N
1571171055.3,286047000.4,N
1571171075.1,286047000.9,N
1571171076.0,286047000.9,N
1571171095.8,286047002.2,N
1571171115.7,286047002.8,N
1571171135.5,286047000.1,N
1571171155.3,286047002.8,N
1571171175.2,286047000.6,N
1571171195.0,286046999.9,N
1571171195.9,286046999.9,N
1571171215.8,286047002.1,N
1571171235.6,286047000.2,N
1571171255.4,286046998.6,N
1571171275.3,286047000.8,N
1571171295.1,286046999.3,N
1571171315.8,286046999.3,N
1571171335.7,286046999.2,N
1571171385.6,286046996.5,E
1571171395.5,286047000.6,N
1571171415.3,286047001.7,P
1571171435.1,286047002.7,P
1571171455.9,286046999.8,N
1571171475.7,286047002.3,N
1571171495.6,286046999.8,N
1571171515.4,286047002.3,N
1571171535.2,286047001.8,N
1571171555.1,286047004.3,Y
1571171556.0,286047004.3,P
1571171575.8,286047002.5,N
1571171595.7,286047000.2,N
1571171615.5,286047002.0,N
1571171635.3,286047003.7,N
1571171655.2,286047004.4,Y
1571171675.0,286047000.8,P
1571171675.9,286047000.8,N
1571171695.7,286047000.6,N
1571171715.6,286047000.5,N
1571171735.4,286046998.1,N
1571171755.3,286046998.6,N
1571171775.1,286046996.7,N
1571171795.8,286046997.2,N
1571171815.7,286046999.4,N
1571171835.5,286046998.9,N
1571171855.3,286046998.6,N
1571171875.2,286047000.7,N
1571171895.0,286046998.1,N
1571171895.9,286046998.1,N
1571171915.8,286046998.5,N
1571171935.6,286047001.7,N
1571171955.4,286047000.5,N
1571171975.3,286047000.7,N
1571171995.1,286046998.9,N
1571172015.9,286046998.1,N
1571172035.7,286046998.3,N
1571172055.5,286046996.5,N
1571172075.4,286046997.0,N
1571172095.2,286046998.8,N
1571172115.0,286047000.9,N
1571172115.9,286047000.9,N
1571172135.8,286047000.6,N
1571172155.6,286047000.7,N
1571172175.5,286047001.2,N
1571172195.3,286046998.5,N
1571172215.1,286046999.3,N
1571172235.9,286046998.8,N
1571172255.7,286047000.6,N
1571172275.6,286047001.3,N
1571172295.4,286047000.1,N
1571172315.2,286047004.4,Y
1571172335.1,286047002.0,P
1571172336.0,286047002.0,N
1571172355.8,286047002.6,N
1571172375.7,286047002.0,N
1571172395.5,286047002.6,N
1571172415.3,286047002.7,N
1571172435.2,286046999.8,N
1571172455.9,286047000.3,N
1571172475.7,286047000.7,N
1571172495.6,286047000.9,N
1571172515.4,286047002.8,N
1571172535.3,286047001.8,N
1571172555.1,286047002.8,N
1571172556.0,286047002.8,N
1571172575.8,286047001.7,N
1571172595.7,286047003.5,Y
1571172615.5,286047000.4,P
1571172635.3,286046999.9,N
1571172655.2,286047000.1,N
1571172675.0,286047002.5,Y
1571172675.9,286047002.5,P
1571172695.8,286047002.6,N
1571172715.6,286047001.6,N
1571172735.4,286047001.6,N
1571172755.3,286047001.6,N
1571172775.1,286047001.9,N
1571172795.9,286047004.3,Y
1571172815.7,286047002.7,P
1571172835.5,286047000.2,N
1571172855.4,286047001.2,N
1571172875.2,286047002.8,Y
1571172895.1,286047000.4,P
1571172896.0,286047000.4,N
1571172915.8,286047000.4,N
1571172935.6,286047000.1,N
1571172955.5,286046996.5,Y
1571172975.3,286046999.1,P
1571172995.1,286046996.5,P
1571173015.9,286046996.9,N
1571173035.7,286046997.1,N
1571173055.6,286046998.7,N
1571173075.4,286046999.5,N
1571173095.2,286046998.7,N
1571173115.1,286047000.5,N
1571173116.0,286047000.5,N
1571173135.8,286047000.7,N
1571173155.6,286046998.2,N
1571173175.5,286046998.5,N
1571173195.3,286046999.5,N
